Starlink 31502

operational
NORAD ID: 59301 Int'l Des: 2024-056 Owner: SPXS Country: US Constellation: starlink
LEOCIRCULAR

关于 Starlink 31502

正在加载描述...

实时位置

正在加载3D地球...

即将过境

高度历史

Altitude vs Time

uPlot chart will show altitude changes over time

两行轨道根数

1 59301U 24056F 25352.38588628 -.00000509 00000-0 -89630-5 0 9997
2 59301 43.0054 322.6278 0001192 261.3886 98.6830 15.27586660 98808
Epoch: Dec 18, 2025 • Age: 17 hours

当前状态

高度 488.2 km
速度 7.62 km/s
星下点 -23.72°S, 50.31°E
发射日期 Mar 24, 2024
运行时间 1.7 years
类型 internet

技术详情

分类 Payload
质量 730.00 kg
干质量 700.00 kg
总质量 730.00 kg
长度 0.30 m
直径 4.10 m
跨度 29.00 m
形状 Box + pan
制造商 SPXS
平台类型 Starlink V2M
阶段状态 In Orbit
所有者/国家 SPXS/US

大型星座

Loading constellations...